星链-35763(STARLINK-35763)

导读

STARLINK-35804是美国太空探索技术公司(SpaceX)于2025年11月6日发射的星链(Starlink)系列卫星。星链项目旨在构建全球卫星互联网星座,为全球偏远地区等提供高速低延迟宽带网络,覆盖远洋、灾害应急、商业科研等多场景,弥补地面网络覆盖不足,该卫星是SpaceX星链巨型星座计划的组成部分,助力完善全球卫星互联网服务覆盖。

基本信息
目录编号:
66371
目录名称:
STARLINK-35804
国际标识:
2025-254Z
轨道中心:
EARTH
卫星名称:
星链-35763
卫星全名:
星链-35763(STARLINK-35763)
卫星状态:
在轨 (已飞行219 天)
发射日期:
2025-11-06 UTC
国别 :
美国 (US)
星等 :
--
轨道信息
数据来源 国际轨道数据 AOE轨道数据
星历时间 2026-06-12T13:41:59+0800
1天前
查看轨道信息
2026-06-12T05:00:00+0800
1天前
查看轨道信息
半长轴 6853.289km 6853.373km
偏心率 0.0001313 0.0001447
轨道倾角 53.158° 53.158°
近地点辐角 77.101° 74.591°
升交点赤经 150.952° 152.638°
平近点角 283.014° 87.491°
近地点 474.252km 474.244km
远地点 476.052km 476.228km
周期 94.104分钟 94.106分钟
每日圈数 15.302212 15.301933
详细信息
固有亮度:
5
最大亮度:
2.5
卫星平台:
Starlink V1.0
覆盖范围:
全球
运营商:
太空探索技术公司
运营商所在国:
美国
制造商(研发单位):
太空探索技术公司
制造商所在国:
美国
使用方式:
暂无
卫星简介
Starlink 计划是 SpaceX 推出的全球卫星互联网项目,通过发射低轨道卫星,为全球尤其是偏远地区提供高速、低延迟的互联网服务。自 2019 年起,Starlink 已部署数千颗卫星,旨在缩小全球数字鸿沟,推动互联网普及。该项目还为军事、航空等行业提供通信支持,带来广泛经济效益。
2D轨道图
3D轨道图
轨道高度分析图
轨道倾角分析图
轨道综合分析图
查看轨道综合分析图